Lexington Weather

Lexington, Massachusetts, USA

46°F
12/8/2022 3:42pm 
  • Lexington Conditions: Clear
  • Temperature: 46.4°F / 8.0°CColder 2.3°F than last hour.
  • Dew Point: 34.5°FDecreased 0.6°Fsince last hour.
  • Relative Humidity: 63%Increased 4.0% since last hour.
  • Wind: Wind from N N Calm, 10-min avg: 3 mph, gust: 9 mph
  • Barometer: 30.10 inRising 0.03  inHg/hr Rising Slowly
  • Visibility: 10 miles
  • Rain Today: 0.00 in
  •   

Warning: Undefined variable $rc in /homepages/6/d276339138/htdocs/weather/20190804/ssi/nwsProduct.php on line 323

Warning: Undefined variable $rc in /homepages/6/d276339138/htdocs/weather/20190804/ssi/nwsProduct.php on line 325

Warning: Undefined variable $rc in /homepages/6/d276339138/htdocs/weather/20190804/ssi/nwsProduct.php on line 323

Warning: Undefined variable $rc in /homepages/6/d276339138/htdocs/weather/20190804/ssi/nwsProduct.php on line 325

Warning: Undefined variable $rc in /homepages/6/d276339138/htdocs/weather/20190804/ssi/nwsProduct.php on line 323

Warning: Undefined variable $rc in /homepages/6/d276339138/htdocs/weather/20190804/ssi/nwsProduct.php on line 325

Warning: Undefined variable $rc in /homepages/6/d276339138/htdocs/weather/20190804/ssi/nwsProduct.php on line 323

Warning: Undefined variable $rc in /homepages/6/d276339138/htdocs/weather/20190804/ssi/nwsProduct.php on line 325

Warning: Undefined variable $rc in /homepages/6/d276339138/htdocs/weather/20190804/ssi/nwsProduct.php on line 323

Warning: Undefined variable $rc in /homepages/6/d276339138/htdocs/weather/20190804/ssi/nwsProduct.php on line 325

Warning: Undefined variable $rc in /homepages/6/d276339138/htdocs/weather/20190804/ssi/nwsProduct.php on line 323

Warning: Undefined variable $rc in /homepages/6/d276339138/htdocs/weather/20190804/ssi/nwsProduct.php on line 325

Warning: Undefined variable $rc in /homepages/6/d276339138/htdocs/weather/20190804/ssi/nwsProduct.php on line 323

Warning: Undefined variable $rc in /homepages/6/d276339138/htdocs/weather/20190804/ssi/nwsProduct.php on line 325

Regional Weather Roundup
for Boston, MA

        
000
ASUS41 KBOX 020510
RWRBOX

REGIONAL WEATHER ROUNDUP
NATIONAL WEATHER SERVICE BOSTON/NORTON MA
1200 AM EST FRI DEC 02 2022

NOTE:  "FAIR" INDICATES FEW OR NO CLOUDS BELOW 12,000 FEET WITH NO 
SIGNIFICANT WEATHER AND/OR OBSTRUCTIONS TO VISIBILITY.

MAZALL-020600-
EASTERN MASSACHUSETTS
  
CITY           SKY/WX    TMP DP  RH WIND       PRES   REMARKS
BOSTON         PTCLDY    37  23  56 W10       30.37R WCI  30          
BEVERLY        CLEAR     33  23  66 W8        30.34R WCI  26          
LAWRENCE       CLEAR     32  23  69 SW6       30.36R WCI  26          
BEDFORD        CLEAR     34  22  61 SW3       30.35R                  
NORWOOD        CLEAR     28  24  85 CALM      30.37R                  
MARSHFIELD       N/A     32  23  69 W3        30.36R                  
PLYMOUTH       CLEAR     31  22  69 SW3       30.35R                  
TAUNTON          N/A    N/A N/A N/A MISG      30.37R                  
NEW BEDFORD    CLEAR     31  22  69 W3        30.36S                  
$$

MAZALL-020600-
CAPE COD AND THE ISLANDS
  
CITY           SKY/WX    TMP DP  RH WIND       PRES   REMARKS
FALMOUTH       CLEAR     34  21  60 W6        30.37R WCI  29          
HYANNIS        CLEAR     34  23  64 W7        30.35R WCI  28          
CHATHAM        CLEAR     35  23  61 VRB3      30.36R                  
PROVINCETOWN   CLEAR     38  27  64 W17G24    30.35R WCI  28          
NANTUCKET      CLEAR     41  25  53 NW12      30.37R                  
MARTHAS VNYRD  CLEAR     38  24  57 W9        30.38R WCI  31          
$$
 
MAZALL-020600-
CENTRAL AND WESTERN MASSACHUSETTS
  
CITY           SKY/WX    TMP DP  RH WIND       PRES   REMARKS
WORCESTER      CLEAR     31  20  63 W6        30.32R WCI  25          
FITCHBURG      CLEAR     33  20  58 CALM      30.35R                  
ORANGE         CLEAR     29  21  72 CALM      30.35R                  
SPRINGFIELD    CLEAR     33  21  62 W5        30.36R WCI  28          
WESTFIELD      PTCLDY    28  21  75 CALM      30.38R                  
NORTH ADAMS    CLOUDY    34  23  64 W17       30.37R WCI  23          
PITTSFIELD     MOCLDY    31  21  66 W12       30.33S WCI  22          
$$
 
RIZALL-020600-
RHODE ISLAND
  
CITY           SKY/WX    TMP DP  RH WIND       PRES   REMARKS
PROVIDENCE     PTCLDY    32  21  64 W8        30.38R WCI  25          
NEWPORT        CLEAR     34  21  59 W6        30.37R WCI  29          
BLOCK ISLAND   PTCLDY    37  22  54 NW9G18    30.41R WCI  30          
SMITHFIELD     CLEAR     31  22  69 SW3       30.37R                  
WESTERLY       CLEAR     34  20  56 W6        30.40R WCI  29          
$$
 
CTZALL-020600-
CONNECTICUT
  
CITY           SKY/WX    TMP DP  RH WIND       PRES   REMARKS
BRADLEY INTL   PTCLDY    32  20  61 NW5       30.39R WCI  27          
HARTFORD       PTCLDY    33  21  61 S6        30.41R WCI  28          
BRIDGEPORT     CLEAR     34  21  59 W10       30.45R WCI  26          
DANBURY        CLEAR     29  19  66 W5        30.44R WCI  24          
GROTON         PTCLDY    36  21  54 W8        30.41R WCI  30          
NEW HAVEN      PTCLDY    37  22  54 W5        30.44R                  
CHESTER        FAIR      32  19  59 W6        30.40R WCI  26          
MERIDEN        PTCLDY    34  18  52 W7        30.42R WCI  28          
WILLIMANTIC    PTCLDY    32  21  64 CALM      30.39R                  
OXFORD         PTCLDY    30  20  66 NW5       30.41R WCI  25          
$$

MEZ002-015-021-024-NHZ003-005-008-011-012-014-VTZ005-008-020600-
NORTHERN NEW ENGLAND
  
CITY           SKY/WX    TMP DP  RH WIND       PRES   REMARKS
PORTLAND ME    CLEAR     30  18  60 SW3       30.29R                  
BANGOR ME      PTCLDY    31  16  54 NW6       30.23R WCI  25          
CONCORD NH     CLEAR     33  20  58 W3        30.31R                  
MANCHESTER NH  CLEAR     32  22  66 S3        30.31R                  
NASHUA NH      CLEAR     30  25  81 CALM      30.35R                  
PORTSMOUTH NH  PTCLDY    32  21  63 W7        30.32R WCI  26          
JAFFREY NH     CLEAR     33  21  61 VRB6      30.30R WCI  28          
KEENE NH       CLEAR     28  24  85 CALM        N/A                   
BURLINGTON VT  MOCLDY    32  19  58 E3        30.35F                  
MT. WASHINGTON BLWGSNOW   5   5 100 NW72G84     N/A  VSB 1/16WCI -28  
$$

NYZ052-076-020600-
EASTERN NEW YORK
  
CITY           SKY/WX    TMP DP  RH WIND       PRES   REMARKS
ALBANY         CLOUDY    36  23  59 W14       30.42R WCI  27          
NEW YORK CITY  CLEAR     36  19  50 W15G22    30.47R WCI  27          
$$
 
ANZALL-020600-
MARINE OBSERVATIONS
  
STATION/POSITION TIME  TEMP    WIND        PRES    VSBY  WAVE
                       AIR SEA DIR/SP/G                  HT/PER
                 (UTC) (F)     (DEG/KT/KT) (MB)    (MI)  (FT/S)
BOSTON BUOY      0450      51  260/ 16/ 19 1028.6R         3/ 4
BUZZARDS BAY     0400   39     300/ 19/ 22 1028.8F
NANTUCKET SOUND  0450   41     290/ 17/ 23 1028.5R
MASS BAY-STELLWA 0304   41 51  270/ 17/ 21 1025.9R  1 7/8  3/ 4
ISLE OF SHOALS   0400   38     260/ 18/ 20 1025.4R
S OF BLOCK IS    0456      55                N/A           5/ 5
$$

......................KEY.........................
  SKY/WX - SKY CONDITION/PRESENT WEATHER
  TMP    - TEMPERATURE IN FAHRENHEIT
  DWPT   - DEWPOINT IN FAHRENHEIT
  RH     - RELATIVE HUMIDITY IN PERCENT
  WIND   - DIRECTION AND SPEED IN MPH
  PRES   - MEAN SEA LEVEL PRESSURE IN INCHES OF HG
  WCI    - WIND CHILL INDEX
  VSB    - VISIBILITY IN MILES
  HX     - HEAT INDEX
  TC     - TEMPERATURE IN CELSIUS
  VRB    - VARIABLE WIND DIRECTION
  N/A    - NOT AVAILABLE
  
      

Other recent Regional Weather Roundups

Thu Dec 8, 3:10pm

Thu Dec 8, 2:10pm

Thu Dec 8, 1:10pm

Thu Dec 8, 12:10pm

Thu Dec 8, 11:10am

Thu Dec 8, 10:10am

Thu Dec 8, 9:10am

Thu Dec 8, 8:10am

Thu Dec 8, 7:10am

Thu Dec 8, 6:10am

Thu Dec 8, 5:10am

Thu Dec 8, 4:10am

Thu Dec 8, 3:10am

Thu Dec 8, 2:10am

Thu Dec 8, 1:10am

Thu Dec 8, 12:10am

Wed Dec 7, 11:10pm

Wed Dec 7, 10:10pm

Wed Dec 7, 9:10pm

Wed Dec 7, 8:10pm

Wed Dec 7, 7:10pm

Wed Dec 7, 6:10pm

Wed Dec 7, 5:10pm

Wed Dec 7, 4:10pm

Wed Dec 7, 3:10pm

Wed Dec 7, 2:10pm

Wed Dec 7, 1:10pm

Wed Dec 7, 12:10pm

Wed Dec 7, 11:10am

Wed Dec 7, 10:10am

Wed Dec 7, 9:10am

Wed Dec 7, 8:10am

Wed Dec 7, 7:10am

Wed Dec 7, 6:10am

Wed Dec 7, 5:10am

Wed Dec 7, 4:10am

Wed Dec 7, 3:10am

Wed Dec 7, 2:10am

Wed Dec 7, 1:10am

Wed Dec 7, 12:10am

Tue Dec 6, 11:10pm

Tue Dec 6, 10:10pm

Tue Dec 6, 9:10pm

Tue Dec 6, 8:10pm

Tue Dec 6, 7:10pm

Tue Dec 6, 6:10pm

Tue Dec 6, 5:10pm

Tue Dec 6, 4:10pm

Tue Dec 6, 3:10pm

Tue Dec 6, 2:10pm

Tue Dec 6, 1:10pm

Tue Dec 6, 12:10pm

Tue Dec 6, 11:10am

Tue Dec 6, 10:10am

Tue Dec 6, 9:10am

Tue Dec 6, 8:10am

Tue Dec 6, 7:10am

Tue Dec 6, 6:10am

Tue Dec 6, 5:10am

Tue Dec 6, 4:10am

Tue Dec 6, 3:10am

Tue Dec 6, 2:10am

Tue Dec 6, 1:10am

Tue Dec 6, 12:10am

Mon Dec 5, 11:10pm

Mon Dec 5, 10:10pm

Mon Dec 5, 9:10pm

Mon Dec 5, 8:10pm

Mon Dec 5, 7:10pm

Mon Dec 5, 6:10pm

Mon Dec 5, 5:10pm

Mon Dec 5, 4:10pm

Mon Dec 5, 3:10pm

Mon Dec 5, 2:10pm

Mon Dec 5, 1:10pm

Mon Dec 5, 12:10pm

Mon Dec 5, 11:10am

Mon Dec 5, 10:10am

Mon Dec 5, 9:10am

Mon Dec 5, 8:10am

Mon Dec 5, 7:10am

Mon Dec 5, 6:10am

Mon Dec 5, 5:10am

Mon Dec 5, 4:10am

Mon Dec 5, 3:10am

Mon Dec 5, 2:10am

Mon Dec 5, 1:10am

Mon Dec 5, 12:10am

Sun Dec 4, 11:10pm

Sun Dec 4, 10:10pm

Sun Dec 4, 9:10pm

Sun Dec 4, 8:10pm

Sun Dec 4, 7:10pm

Sun Dec 4, 6:10pm

Sun Dec 4, 5:10pm

Sun Dec 4, 4:10pm

Sun Dec 4, 3:10pm

Sun Dec 4, 2:10pm

Sun Dec 4, 1:10pm

Sun Dec 4, 12:10pm

Sun Dec 4, 11:10am

Sun Dec 4, 10:10am

Sun Dec 4, 9:10am

Sun Dec 4, 8:10am

Sun Dec 4, 7:10am

Sun Dec 4, 6:10am

Sun Dec 4, 5:10am

Sun Dec 4, 4:10am

Sun Dec 4, 3:10am

Sun Dec 4, 2:10am

Sun Dec 4, 1:10am

Sun Dec 4, 12:10am

Sat Dec 3, 11:10pm

Sat Dec 3, 10:10pm

Sat Dec 3, 9:10pm

Sat Dec 3, 8:10pm

Sat Dec 3, 7:10pm

Sat Dec 3, 6:10pm

Sat Dec 3, 5:10pm

Sat Dec 3, 4:10pm

Sat Dec 3, 3:10pm

Sat Dec 3, 2:10pm

Sat Dec 3, 1:10pm

Sat Dec 3, 12:10pm

Sat Dec 3, 11:10am

Sat Dec 3, 10:10am

Sat Dec 3, 9:10am

Sat Dec 3, 8:10am

Sat Dec 3, 7:10am

Sat Dec 3, 6:10am

Sat Dec 3, 5:10am

Sat Dec 3, 4:10am

Sat Dec 3, 3:10am

Sat Dec 3, 2:10am

Sat Dec 3, 1:10am

Sat Dec 3, 12:10am

Fri Dec 2, 11:10pm

Fri Dec 2, 10:10pm

Fri Dec 2, 9:10pm

Fri Dec 2, 8:10pm

Fri Dec 2, 7:10pm

Fri Dec 2, 6:10pm

Fri Dec 2, 5:10pm

Fri Dec 2, 4:10pm

Fri Dec 2, 3:10pm

Fri Dec 2, 2:10pm

Fri Dec 2, 1:10pm

Fri Dec 2, 12:10pm

Fri Dec 2, 11:10am

Fri Dec 2, 10:10am

Fri Dec 2, 9:10am

Fri Dec 2, 8:10am

Fri Dec 2, 7:10am

Fri Dec 2, 6:10am

Fri Dec 2, 5:10am

Fri Dec 2, 4:10am

Fri Dec 2, 3:10am

Fri Dec 2, 2:10am

Fri Dec 2, 1:10am

Thu Dec 1, 11:10pm

Thu Dec 1, 10:10pm

Thu Dec 1, 9:10pm

Thu Dec 1, 8:10pm

Thu Dec 1, 7:10pm

Thu Dec 1, 6:10pm

Thu Dec 1, 5:10pm

Thu Dec 1, 4:10pm

Meta data:

ID: e69775f9-c922-4a19-8f2a-43486a2650d1
Link: https://api.weather.gov/products/e69775f9-c922-4a19-8f2a-43486a2650d1